When you browse on this site, cookies collect data to enhance your experience and personalize the content and advertising you see.
Visit our Privacy Policy to learn more. By continuing to use the site, you agree to this use of cookies and data.

Hourly Weather Mayrhofen

Today, 20 September, Sunday

Time Temperature Precipitation Wind Pressure Humidity
00:00 +11°C° 0.1 mm 1 mps 619 mmHg 94%
01:00 +11°C° 0.1 mm 1 mps 619 mmHg 94%
02:00 +11°C° 0.1 mm 1 mps 619 mmHg 94%
03:00 +10°C° 0.1 mm 1 mps 619 mmHg 94%
04:00 +10°C° 0.1 mm 1 mps 618 mmHg 93%
05:00 +10°C° 0 mm 1 mps 619 mmHg 93%
06:00 +11°C° 0 mm 1 mps 619 mmHg 92%
07:00 +11°C° 0 mm 1 mps 619 mmHg 91%
08:00 +13°C° 0.1 mm 1 mps 619 mmHg 84%
09:00 +14°C° 0.1 mm 1 mps 620 mmHg 77%
10:00 +16°C° 0.1 mm 1 mps 620 mmHg 70%
11:00 +18°C° 0.5 mm 1 mps 620 mmHg 67%
12:00 +18°C° 0.5 mm 1 mps 620 mmHg 63%
13:00 +19°C° 0.5 mm 1 mps 620 mmHg 60%
14:00 +18°C° 1 mm 1 mps 620 mmHg 64%
15:00 +18°C° 1 mm 1 mps 620 mmHg 69%
16:00 +16°C° 1 mm 1 mps 619 mmHg 73%
17:00 +14°C° 0.4 mm 1 mps 619 mmHg 79%
18:00 +12°C° 0.4 mm 1 mps 618 mmHg 86%
19:00 +11°C° 0.4 mm 1 mps 618 mmHg 92%
20:00 +10°C° 0 mm 1 mps 618 mmHg 93%
21:00 +10°C° 0 mm 1 mps 618 mmHg 93%
22:00 +9°C° 0 mm 1 mps 618 mmHg 94%
23:00 +9°C° 0 mm 1 mps 618 mmHg 94%

Tomorrow, 21 September, Monday

Time Temperature Precipitation Wind Pressure Humidity
00:00 +9°C° 0 mm 1 mps 618 mmHg 94%
01:00 +9°C° 0 mm 1 mps 618 mmHg 94%
02:00 +9°C° 0 mm 1 mps 617 mmHg 94%
03:00 +8°C° 0 mm 1 mps 617 mmHg 93%
04:00 +8°C° 0 mm 1 mps 617 mmHg 93%
05:00 +9°C° 0 mm 1 mps 618 mmHg 93%
06:00 +9°C° 0 mm 1 mps 618 mmHg 92%
07:00 +9°C° 0 mm 1 mps 618 mmHg 92%
08:00 +11°C° 0 mm 1 mps 619 mmHg 84%
09:00 +14°C° 0 mm 1 mps 620 mmHg 76%
10:00 +16°C° 0 mm 1 mps 621 mmHg 69%
11:00 +16°C° 0.1 mm 1 mps 621 mmHg 64%
12:00 +18°C° 0.1 mm 1 mps 621 mmHg 59%
13:00 +19°C° 0.1 mm 1 mps 621 mmHg 54%
14:00 +18°C° 0.6 mm 2 mps 621 mmHg 59%
15:00 +17°C° 0.6 mm 2 mps 620 mmHg 64%
16:00 +16°C° 0.6 mm 2 mps 620 mmHg 69%
17:00 +14°C° 1 mm 2 mps 619 mmHg 76%
18:00 +13°C° 1 mm 1 mps 619 mmHg 83%
19:00 +11°C° 1 mm 1 mps 618 mmHg 89%
20:00 +10°C° 0.2 mm 1 mps 618 mmHg 90%
21:00 +10°C° 0.2 mm 1 mps 618 mmHg 91%
22:00 +8°C° 0.2 mm 2 mps 618 mmHg 92%
23:00 +8°C° 0 mm 2 mps 618 mmHg 93%

Day after tomorrow, 22 September, Tuesday

Time Temperature Precipitation Wind Pressure Humidity
00:00 +8°C° 0 mm 2 mps 618 mmHg 94%
01:00 +7°C° 0 mm 2 mps 617 mmHg 94%
02:00 +7°C° 0 mm 2 mps 617 mmHg 94%
03:00 +7°C° 0 mm 2 mps 617 mmHg 94%
04:00 +7°C° 0 mm 2 mps 617 mmHg 94%
05:00 +8°C° 0 mm 2 mps 617 mmHg 94%
06:00 +8°C° 0 mm 2 mps 617 mmHg 94%
07:00 +8°C° 0 mm 2 mps 617 mmHg 93%
08:00 +10°C° 0 mm 2 mps 618 mmHg 86%
09:00 +13°C° 0 mm 2 mps 618 mmHg 79%
10:00 +14°C° 0 mm 1 mps 619 mmHg 72%
11:00 +15°C° 0.1 mm 2 mps 619 mmHg 67%
12:00 +16°C° 0.1 mm 2 mps 619 mmHg 62%
13:00 +17°C° 0.1 mm 2 mps 619 mmHg 57%
14:00 +16°C° 0.4 mm 2 mps 618 mmHg 64%
15:00 +15°C° 0.4 mm 2 mps 617 mmHg 71%
16:00 +14°C° 0.4 mm 2 mps 617 mmHg 77%
17:00 +13°C° 0.3 mm 2 mps 616 mmHg 82%
18:00 +10°C° 0.3 mm 2 mps 616 mmHg 87%
19:00 +9°C° 0.3 mm 2 mps 615 mmHg 91%
20:00 +8°C° 0 mm 2 mps 615 mmHg 92%
21:00 +8°C° 0 mm 2 mps 615 mmHg 93%
22:00 +7°C° 0 mm 2 mps 614 mmHg 93%
23:00 +7°C° 0 mm 2 mps 614 mmHg 93%

23 September, Wednesday

Time Temperature Precipitation Wind Pressure Humidity
00:00 +7°C° 0 mm 2 mps 614 mmHg 93%
01:00 +7°C° 0 mm 2 mps 614 mmHg 93%
02:00 +7°C° 0 mm 2 mps 614 mmHg 94%
03:00 +7°C° 0 mm 2 mps 614 mmHg 94%
04:00 +7°C° 0 mm 2 mps 614 mmHg 94%
05:00 +7°C° 0 mm 2 mps 614 mmHg 94%
06:00 +9°C° 0 mm 1 mps 614 mmHg 93%
07:00 +9°C° 0 mm 1 mps 614 mmHg 93%
08:00 +10°C° 0.1 mm 1 mps 615 mmHg 88%
09:00 +11°C° 0.1 mm 1 mps 615 mmHg 84%
10:00 +13°C° 0.1 mm 1 mps 616 mmHg 79%
11:00 +13°C° 0.4 mm 1 mps 616 mmHg 76%
12:00 +14°C° 0.4 mm 2 mps 616 mmHg 73%
13:00 +14°C° 0.4 mm 2 mps 616 mmHg 70%
14:00 +14°C° 0.5 mm 2 mps 615 mmHg 72%
15:00 +13°C° 0.5 mm 2 mps 615 mmHg 74%
16:00 +13°C° 0.5 mm 2 mps 615 mmHg 76%
17:00 +11°C° 0.3 mm 1 mps 614 mmHg 82%
18:00 +10°C° 0.3 mm 1 mps 614 mmHg 89%
19:00 +7°C° 0.3 mm 0 mps 613 mmHg 95%
20:00 +8°C° 0.1 mm 1 mps 613 mmHg 95%
21:00 +8°C° 0.1 mm 1 mps 614 mmHg 94%
22:00 +7°C° 0.1 mm 1 mps 614 mmHg 94%
23:00 +7°C° 0 mm 1 mps 614 mmHg 94%

24 September, Thursday

Time Temperature Precipitation Wind Pressure Humidity
00:00 +7°C° 0 mm 1 mps 613 mmHg 94%
01:00 +7°C° 0 mm 1 mps 613 mmHg 93%
02:00 +7°C° 0 mm 1 mps 613 mmHg 94%
03:00 +7°C° 0 mm 1 mps 613 mmHg 94%
04:00 +7°C° 0 mm 1 mps 613 mmHg 94%
05:00 +7°C° 0 mm 1 mps 614 mmHg 94%
06:00 +7°C° 0 mm 1 mps 614 mmHg 94%
07:00 +8°C° 0 mm 1 mps 614 mmHg 93%
08:00 +9°C° 0 mm 1 mps 615 mmHg 88%
09:00 +11°C° 0 mm 1 mps 615 mmHg 82%
10:00 +12°C° 0 mm 2 mps 616 mmHg 77%
11:00 +12°C° 0.2 mm 2 mps 616 mmHg 76%
12:00 +13°C° 0.2 mm 2 mps 616 mmHg 75%
13:00 +13°C° 0.2 mm 2 mps 616 mmHg 75%
14:00 +13°C° 0.3 mm 2 mps 615 mmHg 77%
15:00 +12°C° 0.3 mm 2 mps 615 mmHg 79%
16:00 +12°C° 0.3 mm 2 mps 614 mmHg 82%
17:00 +10°C° 0.4 mm 2 mps 613 mmHg 87%
18:00 +9°C° 0.4 mm 2 mps 613 mmHg 91%
19:00 +8°C° 0.4 mm 2 mps 612 mmHg 96%
20:00 +9°C° 0.9 mm 1 mps 612 mmHg 96%
21:00 +9°C° 0.9 mm 1 mps 612 mmHg 97%
22:00 +9°C° 0.9 mm 1 mps 611 mmHg 97%
23:00 +8°C° 4 mm 1 mps 611 mmHg 98%

25 September, Friday

Time Temperature Precipitation Wind Pressure Humidity
00:00 +8°C° 4 mm 1 mps 610 mmHg 98%
01:00 +6°C° 4 mm 2 mps 610 mmHg 98%
02:00 +5°C° 3.8 mm 2 mps 609 mmHg 98%
03:00 +4°C° 3.8 mm 2 mps 609 mmHg 98%
04:00 +3°C° 3.8 mm 2 mps 608 mmHg 98%
05:00 +3°C° 2 mm 2 mps 608 mmHg 98%
06:00 +2°C° 2 mm 2 mps 607 mmHg 98%
07:00 +2°C° 2 mm 2 mps 607 mmHg 98%
08:00 +1°C° 2.6 mm 2 mps 607 mmHg 98%
09:00 -1°C° 2.6 mm 3 mps 607 mmHg 98%
10:00 -1°C° 2.6 mm 3 mps 607 mmHg 97%
11:00 -1°C° 3.3 mm 3 mps 607 mmHg 97%
12:00 -2°C° 3.3 mm 3 mps 607 mmHg 97%
13:00 -2°C° 3.3 mm 3 mps 607 mmHg 97%
14:00 -2°C° 1.2 mm 2 mps 607 mmHg 95%
15:00 -2°C° 1.2 mm 2 mps 607 mmHg 94%
16:00 -2°C° 1.2 mm 2 mps 607 mmHg 92%
17:00 -3°C° 0.3 mm 2 mps 607 mmHg 93%
18:00 -4°C° 0.3 mm 2 mps 607 mmHg 95%
19:00 -4°C° 0.3 mm 2 mps 607 mmHg 96%
20:00 -3°C° 0.3 mm 1 mps 607 mmHg 96%
21:00 -3°C° 0.3 mm 1 mps 607 mmHg 96%
22:00 -3°C° 0.3 mm 1 mps 608 mmHg 96%
23:00 -4°C° 0.2 mm 1 mps 607 mmHg 94%
Show more